(105610) = 2000 RG98 = 2001 YK51

Discovered at Anderson Mesa on 2000-09-05 by LONEOS.

Orbit

Orbit type: Main Belt

Note: WebGL enabled browser required.

epoch2024-03-31.0
epoch JD2460400.5
perihelion date2021-10-09.35933
perihelion JD2459496.85933
argument of perihelion (°)45.26318
ascending node (°)274.46345
inclination (°)12.28151
eccentricity0.1017357
perihelion distance (AU)2.7589946
Tisserand w.r.t. Jupiter3.2
ΔV w.r.t. Earth (km/sec)11.0
semimajor axis (AU)3.0714730
mean anomaly (°)165.45487
mean daily motion (°/day)0.18309810
aphelion distance (AU)3.384
period (years)5.38
P-vector [x]0.74676133
P-vector [y]-0.65435827
P-vector [z]-0.11900742
Q-vector [x]0.63037595
Q-vector [y]0.63930496
Q-vector [z]0.44035819
absolute magnitude14.07
phase slope0.15
uncertainty0
referenceMPEC 2024-E179
observations used1780
oppositions20
arc length (days)8556
first opposition used2000
last opposition used2024
residual rms (arc-secs)0.63
perturbers coarse indicatorM-v
perturbers precise indicator003Ek
first observation date used2000-09-05.0
last observation date used2024-02-08.0
computer nameMPCLINUX
JD of orbit computation2456937.300663
perihelion JD uncertainty (days)2.1919E-04
argument of perihelion uncertainty (°)4.8109E-05
ascending node uncertainty (°)3.3766E-05
inclination uncertainty (°)5.6362E-06
eccentricity uncertainty 6.7992E-08
perihelion distance uncertainty (AU)2.1842E-07
Minimum Orbit Intersection Distances (in AU)
for orbit epoch: 2460400.5, reference: E2024-GF4
Mercury2.34303
Venus2.04871
Earth1.7602
Mars1.38211
Jupiter1.8712
Saturn5.74122
Uranus15.1588
Neptune26.7426

Observations

1814 total observations over interval: 2000 09 05.22663 – 2024 02 08.410596
These data are available for download (format description).

Date (UT) J2000 RA J2000 Dec Magn Location Ref
2000 09 05.22663 00 02 46.92 +20 05 53.5 17.9 R 699 – Lowell Observatory-LONEOS MPS 19688
2000 09 05.25260 00 02 45.81 +20 05 52.2   699 – Lowell Observatory-LONEOS MPS 19688
2000 09 05.27857 00 02 44.73 +20 05 50.9   699 – Lowell Observatory-LONEOS MPS 19688
2000 09 05.30446 00 02 43.60 +20 05 50.0   699 – Lowell Observatory-LONEOS MPS 19688
2000 09 06.25295 00 02 04.35 +20 04 57.6 17.8   704 – Lincoln Laboratory ETS, New Mexico MPS 19688
2000 09 06.25304 00 02 04.36 +20 04 57.5 17.6   704 – Lincoln Laboratory ETS, New Mexico MPS 19688
2000 09 06.26604 00 02 03.78 +20 04 56.8 17.9   704 – Lincoln Laboratory ETS, New Mexico MPS 19688
2000 09 06.26614 00 02 03.78 +20 04 56.1 17.9   704 – Lincoln Laboratory ETS, New Mexico MPS 19688
2000 09 06.27911 00 02 03.21 +20 04 55.6 18.2   704 – Lincoln Laboratory ETS, New Mexico MPS 19688
2000 09 06.27920 00 02 03.23 +20 04 55.9 18.4   704 – Lincoln Laboratory ETS, New Mexico MPS 19688
2000 09 06.29217 00 02 02.64 +20 04 55.1 18.3   704 – Lincoln Laboratory ETS, New Mexico MPS 19688
2000 09 06.29227 00 02 02.65 +20 04 55.0 18.6   704 – Lincoln Laboratory ETS, New Mexico MPS 19688
2000 09 06.30523 00 02 02.09 +20 04 54.3 18.5   704 – Lincoln Laboratory ETS, New Mexico MPS 19688
2000 09 06.30533 00 02 02.10 +20 04 55.1 18.4   704 – Lincoln Laboratory ETS, New Mexico MPS 19688
2000 09 10.24813 23 59 11.87 +19 59 02.4 17.8 R 699 – Lowell Observatory-LONEOS MPS 30118
2000 09 10.26210 23 59 11.18 +19 59 01.3   699 – Lowell Observatory-LONEOS MPS 30118
2000 09 10.27610 23 59 10.53 +19 59 00.2   699 – Lowell Observatory-LONEOS MPS 30118
2000 09 10.29006 23 59 09.95 +19 58 58.4   699 – Lowell Observatory-LONEOS MPS 30118
2000 09 22.29694 23 49 52.25 +19 20 17.1 17.8   704 – Lincoln Laboratory ETS, New Mexico MPS 19688
2000 09 22.31165 23 49 51.53 +19 20 12.7 18.4   704 – Lincoln Laboratory ETS, New Mexico MPS 19688
2000 09 22.32644 23 49 50.80 +19 20 09.1 18.0   704 – Lincoln Laboratory ETS, New Mexico MPS 19688
2000 09 22.34116 23 49 50.05 +19 20 05.0 18.6   704 – Lincoln Laboratory ETS, New Mexico MPS 19688
2000 09 22.35589 23 49 49.38 +19 20 01.0 18.2   704 – Lincoln Laboratory ETS, New Mexico MPS 19688
2000 09 30.23868 23 43 44.88 +18 39 42.4 18.2   704 – Lincoln Laboratory ETS, New Mexico MPS 19688
2000 09 30.25330 23 43 44.25 +18 39 37.0 17.6   704 – Lincoln Laboratory ETS, New Mexico MPS 19688
2000 09 30.26790 23 43 43.58 +18 39 32.5 17.4   704 – Lincoln Laboratory ETS, New Mexico MPS 19688
2000 09 30.28262 23 43 42.86 +18 39 27.4 17.7   704 – Lincoln Laboratory ETS, New Mexico MPS 19688
2000 09 30.29716 23 43 42.16 +18 39 22.3 18.0   704 – Lincoln Laboratory ETS, New Mexico MPS 19688
2000 10 03.15976 23 41 36.98 +18 22 25.7 17.5 R 699 – Lowell Observatory-LONEOS MPS 19688
2000 10 03.20803 23 41 34.84 +18 22 07.7   699 – Lowell Observatory-LONEOS MPS 19688
2000 10 03.22821 23 41 33.95 +18 22 01.1   699 – Lowell Observatory-LONEOS MPS 19688
2000 10 03.24839 23 41 33.04 +18 21 53.9   699 – Lowell Observatory-LONEOS MPS 19688
2000 10 04.26630 23 40 49.71 +18 15 37.4 18.8   704 – Lincoln Laboratory ETS, New Mexico MPS 19688
2000 10 04.28135 23 40 49.05 +18 15 32.4 19.1   704 – Lincoln Laboratory ETS, New Mexico MPS 19688
2000 10 04.29641 23 40 48.42 +18 15 28.2 19.2   704 – Lincoln Laboratory ETS, New Mexico MPS 19688
2000 10 04.31148 23 40 47.69 +18 15 22.0 19.3   704 – Lincoln Laboratory ETS, New Mexico MPS 19688
2000 10 04.32702 23 40 47.15 +18 15 16.0 19.2   704 – Lincoln Laboratory ETS, New Mexico MPS 19688
2000 11 01.14627 23 28 10.58 +15 07 58.9 18.7   704 – Lincoln Laboratory ETS, New Mexico MPS 21134
2000 11 01.15984 23 28 10.46 +15 07 53.8 19.1   704 – Lincoln Laboratory ETS, New Mexico MPS 21134
2000 11 01.17341 23 28 10.30 +15 07 49.3 19.2   704 – Lincoln Laboratory ETS, New Mexico MPS 21134
2000 11 01.18699 23 28 10.13 +15 07 43.4 19.2   704 – Lincoln Laboratory ETS, New Mexico MPS 21134
2000 11 01.20063 23 28 10.04 +15 07 38.3 19.1   704 – Lincoln Laboratory ETS, New Mexico MPS 21134
2000 11 27.08035 23 32 04.20 +13 02 47.3 18.3   704 – Lincoln Laboratory ETS, New Mexico MPS 22456
2000 11 27.08206 23 32 04.30 +13 02 46.7 18.3   704 – Lincoln Laboratory ETS, New Mexico MPS 22456
2000 11 27.09518 23 32 04.49 +13 02 44.3 18.1   704 – Lincoln Laboratory ETS, New Mexico MPS 22456
2000 11 27.10970 23 32 04.92 +13 02 42.7 18.6   704 – Lincoln Laboratory ETS, New Mexico MPS 22456
2000 11 27.12190 23 32 05.18 +13 02 39.2 19.2   704 – Lincoln Laboratory ETS, New Mexico MPS 22456
2000 11 27.13738 23 32 05.59 +13 02 36.3 18.9   704 – Lincoln Laboratory ETS, New Mexico MPS 22456
2000 11 27.13872 23 32 05.66 +13 02 36.6 18.7   704 – Lincoln Laboratory ETS, New Mexico MPS 22456
2000 11 27.15312 23 32 06.01 +13 02 33.5 18.6   704 – Lincoln Laboratory ETS, New Mexico MPS 22456
2000 12 04.09576 23 35 37.26 +12 45 04.6 18.7   704 – Lincoln Laboratory ETS, New Mexico MPS 22456
2000 12 04.11155 23 35 37.81 +12 45 01.7 18.7   704 – Lincoln Laboratory ETS, New Mexico MPS 22456
2000 12 04.12682 23 35 38.25 +12 44 59.9 18.9   704 – Lincoln Laboratory ETS, New Mexico MPS 22456
2001 12 18.30380 05 52 46.76 +25 41 53.6 18.4   704 – Lincoln Laboratory ETS, New Mexico MPS 45484
2001 12 18.31902 05 52 45.91 +25 41 50.2 19.0   704 – Lincoln Laboratory ETS, New Mexico MPS 45484
2001 12 18.33424 05 52 45.01 +25 41 46.3 19.1   704 – Lincoln Laboratory ETS, New Mexico MPS 45484
2001 12 18.34948 05 52 44.15 +25 41 44.8 19.3   704 – Lincoln Laboratory ETS, New Mexico MPS 45484
2001 12 18.36472 05 52 43.20 +25 41 41.6 19.8   704 – Lincoln Laboratory ETS, New Mexico MPS 45484
2001 12 19.30545 05 51 50.06 +25 38 43.8 19.3   704 – Lincoln Laboratory ETS, New Mexico MPS 45484
2001 12 19.32074 05 51 49.00 +25 38 39.9 19.8   704 – Lincoln Laboratory ETS, New Mexico MPS 45484
2001 12 19.35114 05 51 47.28 +25 38 34.6 18.6   704 – Lincoln Laboratory ETS, New Mexico MPS 45484
2001 12 19.36678 05 51 46.45 +25 38 31.8 19.1   704 – Lincoln Laboratory ETS, New Mexico MPS 45484
2001 12 20.30257 05 50 53.56 +25 35 31.8 18.5   704 – Lincoln Laboratory ETS, New Mexico MPS 47093
2001 12 20.31763 05 50 52.65 +25 35 28.7 18.5   704 – Lincoln Laboratory ETS, New Mexico MPS 47093
2001 12 20.33270 05 50 51.77 +25 35 26.2 18.4   704 – Lincoln Laboratory ETS, New Mexico MPS 47093
2001 12 20.34797 05 50 50.85 +25 35 23.1 18.2   704 – Lincoln Laboratory ETS, New Mexico MPS 47093
2001 12 20.36308 05 50 49.99 +25 35 20.4 18.5   704 – Lincoln Laboratory ETS, New Mexico MPS 47093
2002 01 08.23095 05 34 26.35 +24 30 10.6 19.4   704 – Lincoln Laboratory ETS, New Mexico MPS 54664
2002 01 08.24606 05 34 25.66 +24 30 06.6 19.6   704 – Lincoln Laboratory ETS, New Mexico MPS 54664
2002 01 08.26122 05 34 24.93 +24 30 04.1 19.3   704 – Lincoln Laboratory ETS, New Mexico MPS 54664
2002 01 08.27634 05 34 24.26 +24 30 00.2 19.3   704 – Lincoln Laboratory ETS, New Mexico MPS 54664
2002 01 08.29146 05 34 23.53 +24 29 57.4 19.6   704 – Lincoln Laboratory ETS, New Mexico MPS 54664
2002 01 13.15596 05 30 59.55 +24 12 49.1 19.2   704 – Lincoln Laboratory ETS, New Mexico MPS 54664
2002 01 13.17113 05 30 58.96 +24 12 45.6 19.5   704 – Lincoln Laboratory ETS, New Mexico MPS 54664
2002 01 13.18630 05 30 58.37 +24 12 42.3 19.4   704 – Lincoln Laboratory ETS, New Mexico MPS 54664
2002 01 13.20147 05 30 57.76 +24 12 39.0 19.3   704 – Lincoln Laboratory ETS, New Mexico MPS 54664
2002 01 13.21666 05 30 57.17 +24 12 35.7 19.3   704 – Lincoln Laboratory ETS, New Mexico MPS 54664
2002 01 15.18062 05 29 42.86 +24 05 45.4 19.8   704 – Lincoln Laboratory ETS, New Mexico MPS 54664
2002 01 15.19572 05 29 42.38 +24 05 43.2 19.2   704 – Lincoln Laboratory ETS, New Mexico MPS 54664
2002 01 15.21081 05 29 41.81 +24 05 40.2 19.8   704 – Lincoln Laboratory ETS, New Mexico MPS 54664
2002 01 15.22590 05 29 41.21 +24 05 37.2 19.6   704 – Lincoln Laboratory ETS, New Mexico MPS 54664
2002 01 19.15724 05 27 28.08 +23 52 14.6 19.4   704 – Lincoln Laboratory ETS, New Mexico MPS 54664
2002 01 19.17230 05 27 27.56 +23 52 11.9 19.7   704 – Lincoln Laboratory ETS, New Mexico MPS 54664
2002 01 19.18736 05 27 27.10 +23 52 09.0 19.6   704 – Lincoln Laboratory ETS, New Mexico MPS 54664
